Location: Mohawk View
(42.7837°N, 73.7885°W)
Time: 08:11:42
(UTC+00:00)

Helios 1B rocket - Pass Details

Date: 17 June 2021
Orbit: 573 x 583 km, 98.2° (Epoch: 27 July)

Event Time Altitude Azimuth Distance (km) Brightness Sun altitude
Rises 06:57:49 0° 10° (N) 2,799 7.3 -18.1°
Reaches altitude 10° 06:59:59 10° 7° (N) 1,894 6.1 -17.9°
Maximum altitude 07:04:03 65° 286° (WNW) 634 2.5 -17.6°
Enters shadow 07:05:29 37° 218° (SW) 893 2.8 -17.4°
